Weather in Legnica

Poland     51°12′15″N   16°10′25″E
temp.,
°C
wind,
m/s
gust,
m/s
humid.,
%
clouds,
%
prec.,
mm/h
press.,
hPa
HPBL,
m
13 april, tue
tue1323:00+2wnw2495100 1.2 1027207
02:00+2w3692100 1.4 1027143
05:00+2w3586100 0.0 1027124
08:00+3wnw478399 0.0 1028387
11:00+5nw566699 0.0 1028981
14:00+8nw5643100 0.1 10272098
17:00+8nnw5740100 0.0 10252136
20:00+5nw3657100 0.0 1026122
14 april, wed
wed1423:00+4wnw3866100 0.0 1026189
02:00+3wnw4972100 0.0 1026241
05:00+2wnw5107792 0.0 1025367
08:00+2wnw61075100 0.0 1026593
11:00+5nw7864100 0.1 10261358
14:00+7nnw6854100 0.3 10241662
17:00+7nnw6856100 0.3 10231492
20:00+5nnw3766100 0.5 1024194
15 april, thu
thu1523:00+3n3777100 0.0 1025287
02:00+2wnw3490100 0.1 1024143
05:00+2wnw4778100 0.0 1024321
08:00+2nw5775100 0.0 1025542
11:00+3nw71080100 0.2 1024964
14:00+2nw71192100 1.4 1024858
17:00+2wnw61197100 1.5 1023657
20:00+1wnw51198100 3.5 1022514
16 april, fri
fri1623:00+1wnw4798100 1.0 1022354
02:00+2wnw3498100 1.5 1021500
05:00+2w4498100 0.4 1021472
08:00+2w4698100 0.8 1022213
11:00+3w3499100 0.2 1022211
14:00+4wnw2497100 0.3 1023252
17:00+6w459198 0.0 1022366
20:00+4wsw4797100 0.0 1023202
17 april, sat
sat1723:00+4w4898100 0.0 1022216
02:00+3w4798100 0.0 1022255
05:00+3w3696100 0.0 1022311
08:00+3w3395100 0.0 1022210
11:00+5w3391100 0.0 1022587
14:00+6nw3489100 0.1 1022560
17:00+5nw3595100 0.2 1021349
20:00+5wnw3598100 1.1 1021198